KD2VWU Weather Reports


time (UTC)temp
F
wind
direction
speed
knots
gust
knots
rain 1hr
in
rain 24hr
in
rain mn
in
humidity
%
barometer
mb
20260903042505 65 144 0.0 0.0 0.00 0.00 0.00 99 1015.4
20260903042000 65 144 0.0 0.0 0.00 0.00 0.00 99 1015.6
20260903041457 65 155 0.0 0.0 0.00 0.00 0.00 99 1015.2
20260903040952 65 189 0.0 0.0 0.00 0.00 0.00 99 1015.4
20260903040450 65 184 0.0 0.0 0.00 0.00 0.00 99 1015.7
20260903035947 65 184 0.0 0.0 0.00 0.80 0.80 99 1015.6
20260903035442 65 186 0.0 0.0 0.00 0.80 0.80 99 1015.9
20260903034937 65 186 0.0 0.0 0.00 0.80 0.80 99 1015.6
20260903034432 65 193 0.0 0.0 0.00 0.80 0.80 99 1015.9
20260903033927 65 194 0.0 0.0 0.00 0.80 0.80 99 1015.9
20260903033423 65 2 0.0 0.0 0.00 0.80 0.80 99 1015.9
20260903032918 65 324 0.0 0.0 0.00 0.80 0.80 99 1015.7
20260903032413 65 335 0.0 0.0 0.00 0.80 0.80 99 1015.4
20260903031908 65 326 0.0 0.0 0.00 0.80 0.80 99 1015.3
20260903031407 65 357 0.0 0.0 0.00 0.80 0.80 99 1015.5
20260903030903 65 51 0.0 0.0 0.00 0.80 0.80 99 1015.1
20260903030359 65 51 0.0 0.0 0.00 0.80 0.80 99 1015.4
20260903025854 65 51 0.0 0.0 0.00 0.80 0.80 99 1015.6
20260903025349 65 51 0.0 0.0 0.00 0.80 0.80 99 1016.0
20260903024844 64 36 0.0 0.0 0.00 0.80 0.80 99 1016.0
20260903024338 64 57 0.0 0.0 0.00 0.80 0.80 99 1016.2
20260903023833 65 57 0.0 0.0 0.00 0.80 0.80 99 1016.1
20260903023329 65 57 0.0 0.0 0.00 0.80 0.80 99 1016.0
20260903022824 65 57 0.0 0.0 0.00 0.80 0.80 99 1016.0
20260903022323 65 57 0.0 0.0 0.00 0.80 0.80 99 1016.1
20260903021817 64 57 0.0 0.0 0.00 0.80 0.80 99 1016.1
20260903021313 64 57 0.0 0.0 0.00 0.80 0.80 99 1016.2
20260903020812 64 57 0.0 0.0 0.00 0.80 0.80 99 1016.4
20260903020307 64 35 0.0 0.0 0.00 0.80 0.80 99 1016.5
20260903015803 64 29 0.0 0.0 0.00 0.80 0.80 99 1016.4
20260903015258 64 34 0.0 0.0 0.00 0.80 0.80 99 1016.3
20260903014753 64 39 0.0 0.0 0.00 0.80 0.80 99 1016.1
20260903014253 64 39 0.0 0.0 0.00 0.80 0.80 99 1016.2
20260903013748 64 39 0.0 0.0 0.00 0.80 0.80 99 1016.2
20260903013247 64 62 0.0 0.0 0.00 0.80 0.80 99 1016.3
20260903012745 64 63 0.0 0.0 0.00 0.80 0.80 99 1016.2
20260903012240 64 63 0.0 0.0 0.00 0.80 0.80 99 1016.3
20260903011740 64 25 0.0 0.0 0.00 0.80 0.80 99 1016.6
20260903011233 64 25 0.0 0.0 0.00 0.80 0.80 99 1016.7
20260903010730 64 24 0.0 0.0 0.00 0.80 0.80 99 1016.8
20260903010229 64 9 0.0 0.0 0.00 0.80 0.80 99 1016.7
20260903005728 64 1 0.0 0.0 0.00 0.80 0.80 99 1016.5
20260903005223 64 333 0.0 0.0 0.00 0.80 0.80 99 1016.2
20260903004719 64 89 0.0 0.0 0.00 0.80 0.80 99 1016.5
20260903004214 64 110 0.0 0.0 0.00 0.80 0.80 99 1016.4
20260903003710 64 120 0.0 0.0 0.00 0.80 0.80 99 1016.7
20260903003205 64 68 0.0 0.0 0.00 0.80 0.80 99 1016.8
20260903002659 64 79 0.0 0.0 0.00 0.80 0.80 99 1016.7
20260903002154 64 40 0.0 0.0 0.00 0.80 0.80 99 1016.8
20260903001649 64 63 0.0 0.0 0.00 0.80 0.80 99 1016.6
20260903001143 64 351 0.9 0.9 0.00 0.80 0.80 99 1016.4
20260903000639 64 322 0.0 0.0 0.00 0.80 0.80 99 1016.7
20260903000138 64 19 0.0 0.0 0.00 0.80 0.80 99 1016.2
20260902235637 64 32 0.0 0.0 0.00 0.80 0.80 99 1016.0
20260902235132 0 0.0 0.0 0.00 0.00 0.00 1015.8
20260902234626 0 0.0 0.0 0.00 0.00 0.00 1015.9
20260902234124 0 0.0 0.0 0.00 0.00 0.00 1016.0
20260902233619 64 58 0.0 0.0 0.00 0.80 0.80 99 1015.8
20260902233114 64 58 0.0 0.0 0.00 0.80 0.80 99 1016.0
20260902232608 64 58 0.0 0.0 0.00 0.80 0.80 99 1016.0
20260902232102 64 65 0.0 0.0 0.00 0.80 0.80 99 1016.1
20260902231601 64 66 0.0 0.0 0.00 0.80 0.80 99 1016.3
20260902231056 64 68 0.0 0.0 0.00 0.80 0.80 99 1016.4
20260902230551 64 65 0.0 0.0 0.00 0.80 0.80 99 1016.6
20260902230050 65 99 0.0 0.0 0.00 0.80 0.80 99 1016.7
20260902225546 65 344 0.9 0.9 0.00 0.80 0.80 99 1016.9
20260902225045 65 64 0.0 0.0 0.00 0.80 0.80 99 1016.6
20260902224544 65 57 0.0 0.0 0.00 0.80 0.80 99 1016.6
20260902224040 65 61 0.0 0.0 0.00 0.80 0.80 99 1016.6
20260902223536 65 57 0.0 0.0 0.00 0.80 0.80 99 1017.1
20260902223035 65 63 0.0 0.0 0.00 0.80 0.80 99 1017.2
20260902222534 65 66 0.0 0.0 0.00 0.80 0.80 99 1017.1
20260902222032 65 57 0.0 0.0 0.00 0.80 0.80 99 1017.2
20260902221527 65 51 0.0 0.0 0.00 0.80 0.80 99 1017.4
20260902221022 65 66 0.0 0.0 0.00 0.80 0.80 99 1017.5
20260902220518 65 19 0.0 0.0 0.00 0.80 0.80 99 1017.7
20260902220012 65 59 0.0 0.0 0.00 0.80 0.80 99 1017.4
20260902215508 65 64 0.0 0.0 0.00 0.80 0.80 99 1017.4
20260902215004 65 27 0.0 0.0 0.00 0.80 0.80 99 1017.4
20260902214503 65 314 0.0 0.9 0.00 0.80 0.80 99 1017.3
20260902214002 65 333 0.0 0.9 0.00 0.80 0.80 99 1017.4
20260902213458 66 85 0.0 0.0 0.00 0.80 0.80 99 1017.1
20260902212957 66 63 0.0 0.9 0.00 0.80 0.80 99 1017.1
20260902212453 65 61 0.0 0.0 0.00 0.80 0.80 99 1016.9
20260902211949 65 3 0.0 0.0 0.00 0.80 0.80 99 1016.8
20260902211444 65 164 0.9 0.9 0.00 0.80 0.80 99 1017.0
20260902210940 66 283 1.7 1.7 0.00 0.80 0.80 99 1016.8
20260902210434 65 270 0.9 0.9 0.00 0.80 0.80 99 1017.0
20260902205932 65 73 0.0 0.0 0.00 0.80 0.80 99 1017.0
20260902205428 65 22 0.0 0.0 0.00 0.80 0.80 99 1017.2
20260902204923 66 80 0.0 0.9 0.00 0.80 0.80 99 1017.1
20260902204423 66 7 0.0 0.0 0.00 0.80 0.80 99 1017.0
20260902203919 66 55 0.0 0.0 0.00 0.80 0.80 99 1017.1
20260902203414 66 327 0.0 0.9 0.00 0.80 0.80 99 1017.0
20260902202913 66 54 0.0 0.0 0.00 0.80 0.80 99 1017.2
20260902202409 66 53 0.0 0.0 0.00 0.80 0.80 99 1016.8
20260902201905 65 63 0.0 0.0 0.00 0.80 0.80 99 1017.1
20260902201405 65 57 0.0 0.0 0.00 0.80 0.80 99 1017.2
20260902200900 66 67 0.0 0.0 0.00 0.80 0.80 99 1017.1
20260902200355 66 50 0.0 0.0 0.00 0.80 0.80 99 1017.1
20260902195850 66 104 0.0 0.0 0.00 0.80 0.80 99 1016.9
20260902195349 66 170 0.0 0.9 0.00 0.80 0.80 99 1016.8
20260902194845 66 46 0.0 0.0 0.00 0.80 0.80 99 1016.8
20260902194339 66 21 0.9 0.9 0.00 0.80 0.80 99 1017.0
20260902193835 67 62 0.0 0.0 0.00 0.80 0.80 99 1017.0
20260902193331 66 67 0.0 0.0 0.00 0.80 0.80 99 1017.1
20260902192829 66 70 0.0 0.0 0.00 0.80 0.80 99 1017.3
20260902192327 66 58 0.0 0.0 0.00 0.80 0.80 99 1017.4
20260902191822 65 57 0.0 0.0 0.00 0.80 0.80 99 1017.3
20260902191318 65 51 0.0 0.0 0.00 0.80 0.80 99 1017.5
20260902190813 66 54 0.0 0.0 0.07 0.80 0.80 99 1017.8
20260902190312 65 67 0.0 0.0 0.19 0.80 0.80 99 1017.6
20260902185808 64 66 0.0 0.0 0.42 0.79 0.79 99 1017.6
20260902185306 64 76 0.0 0.0 0.66 0.77 0.77 99 1017.7
20260902184759 64 62 0.0 0.0 0.61 0.73 0.73 99 1017.7
20260902184254 64 74 0.0 0.0 1.32 0.66 0.66 99 1017.9
20260902183750 64 251 0.9 0.9 1.91 0.61 0.61 99 1018.8
20260902183246 65 57 0.0 0.0 2.29 0.43 0.43 99 1018.8
20260902182742 65 85 0.0 0.0 1.75 0.29 0.29 99 1019.1
20260902182238 66 35 0.9 0.9 0.31 0.05 0.05 98 1019.2
20260902181735 66 297 1.7 1.7 0.00 0.00 0.00 97 1018.3
20260902181234 66 53 0.0 0.0 0.00 0.00 0.00 96 1017.5
20260902180729 66 67 0.0 0.0 0.00 0.00 0.00 96 1017.3
20260902180224 66 63 0.0 0.0 0.00 0.00 0.00 96 1017.3
20260902175719 67 71 0.0 0.0 0.00 0.00 0.00 96 1017.4
20260902175215 67 71 0.0 0.0 0.00 0.00 0.00 95 1017.7
20260902174711 67 72 0.0 0.0 0.00 0.00 0.00 95 1017.6
20260902174207 67 71 0.0 0.0 0.00 0.00 0.00 95 1017.9
20260902173702 67 61 0.0 0.0 0.00 0.00 0.00 95 1017.7
20260902173156 67 83 0.0 0.0 0.00 0.00 0.00 96 1017.7
20260902172651 67 62 0.0 0.0 0.00 0.00 0.00 96 1017.6
20260902172150 67 59 0.0 0.0 0.00 0.00 0.00 96 1017.8
20260902171645 67 60 0.0 0.0 0.00 0.00 0.00 96 1017.9
20260902171141 67 61 0.0 0.0 0.00 0.00 0.00 96 1017.7
20260902170637 67 63 0.0 0.0 0.00 0.00 0.00 96 1017.8
20260902170132 67 69 0.0 0.0 0.00 0.00 0.00 95 1017.9
20260902165627 67 63 0.0 0.0 0.00 0.00 0.00 95 1017.9
20260902165126 67 68 0.0 0.0 0.00 0.00 0.00 96 1018.2
20260902164622 67 34 0.0 0.0 0.00 0.00 0.00 96 1018.2
20260902164121 66 21 0.0 0.0 0.00 0.00 0.00 95 1018.2
20260902163616 66 60 0.0 0.0 0.00 0.00 0.00 96 1017.9
20260902163115 66 103 0.0 0.0 0.00 0.00 0.00 97 1018.0
20260902162614 66 113 0.0 0.0 0.00 0.00 0.00 97 1018.2
20260902162109 66 1 0.0 0.0 0.00 0.00 0.00 97 1017.9
20260902161604 66 66 0.0 0.0 0.00 0.00 0.00 98 1017.8
20260902161100 66 63 0.0 0.0 0.00 0.00 0.00 98 1017.8
20260902160556 66 60 0.0 0.0 0.00 0.00 0.00 97 1017.9
20260902160051 66 72 0.0 0.0 0.00 0.00 0.00 97 1018.0
20260902155544 66 70 0.0 0.0 0.00 0.00 0.00 96 1018.3
20260902155043 66 49 0.0 0.0 0.00 0.00 0.00 98 1018.0
20260902154538 66 357 0.0 0.0 0.00 0.00 0.00 98 1018.2
20260902154033 66 58 0.0 0.0 0.00 0.00 0.00 98 1018.2
20260902153531 66 43 0.0 0.0 0.00 0.00 0.00 97 1017.9
20260902153027 66 61 0.0 0.0 0.00 0.00 0.00 97 1018.3
20260902152524 66 64 0.0 0.0 0.00 0.00 0.00 97 1018.2
20260902152019 66 321 0.0 0.9 0.00 0.00 0.00 96 1018.4
20260902151515 65 318 0.0 0.9 0.00 0.00 0.00 96 1017.9
20260902151014 65 58 0.0 0.0 0.00 0.00 0.00 98 1018.2
20260902150509 65 35 0.0 0.0 0.00 0.00 0.00 99 1018.3
20260902150004 64 13 0.0 0.0 0.00 0.00 0.00 98 1018.5
20260902145459 65 17 0.0 0.0 0.00 0.00 0.00 99 1018.5
20260902144953 64 26 0.0 0.0 0.00 0.00 0.00 99 1018.3
20260902144450 64 52 0.0 0.0 0.00 0.00 0.00 99 1018.4
20260902143944 64 52 0.0 0.0 0.00 0.00 0.00 99 1018.5
20260902143440 64 52 0.0 0.0 0.00 0.00 0.00 99 1018.2
20260902142934 64 47 0.0 0.0 0.00 0.00 0.00 99 1018.5
20260902142430 64 40 0.0 0.0 0.00 0.00 0.00 99 1018.4
20260902141925 63 14 0.0 0.0 0.00 0.00 0.00 99 1017.9
20260902141421 64 64 0.0 0.0 0.00 0.00 0.00 99 1018.0
20260902140919 64 64 0.0 0.0 0.00 0.00 0.00 99 1018.4
20260902140415 63 62 0.0 0.0 0.00 0.00 0.00 99 1018.5
20260902135910 63 63 0.0 0.0 0.00 0.00 0.00 99 1018.4
20260902135406 63 64 0.0 0.0 0.00 0.00 0.00 99 1018.4
20260902134904 63 65 0.0 0.0 0.00 0.00 0.00 99 1018.5
20260902134401 62 66 0.0 0.0 0.00 0.00 0.00 99 1018.4
20260902133855 62 65 0.0 0.0 0.00 0.00 0.00 99 1018.0
20260902133355 62 66 0.0 0.0 0.00 0.00 0.00 99 1018.2
20260902132850 62 58 0.0 0.0 0.00 0.00 0.00 99 1018.0
20260902132345 62 63 0.0 0.0 0.00 0.00 0.00 99 1017.8
20260902131840 62 66 0.0 0.0 0.00 0.00 0.00 99 1017.8
20260902131338 62 66 0.0 0.0 0.00 0.00 0.00 99 1017.9
20260902130836 62 66 0.0 0.0 0.00 0.00 0.00 99 1018.0
20260902130332 62 58 0.0 0.0 0.00 0.00 0.00 99 1017.8
20260902125827 62 66 0.0 0.0 0.00 0.00 0.00 99 1017.9
20260902125323 62 65 0.0 0.0 0.00 0.00 0.00 99 1017.9
20260902124819 62 66 0.0 0.0 0.00 0.00 0.00 99 1018.0
20260902124315 61 66 0.0 0.0 0.00 0.00 0.00 99 1017.8
20260902123809 61 66 0.0 0.0 0.00 0.00 0.00 99 1017.7
20260902123306 61 64 0.0 0.0 0.00 0.00 0.00 99 1017.8
20260902122805 61 66 0.0 0.0 0.00 0.00 0.00 99 1017.7
20260902122305 61 66 0.0 0.0 0.00 0.00 0.00 99 1017.7
20260902121800 61 58 0.0 0.0 0.00 0.00 0.00 99 1017.8
20260902121255 61 58 0.0 0.0 0.00 0.00 0.00 99 1017.7
20260902120751 61 65 0.0 0.0 0.00 0.00 0.00 99 1017.8
20260902120247 61 66 0.0 0.0 0.00 0.00 0.00 99 1017.7
20260902115742 61 67 0.0 0.0 0.00 0.00 0.00 99 1017.5
20260902115238 61 66 0.0 0.0 0.00 0.00 0.00 99 1017.6
20260902114734 61 66 0.0 0.0 0.00 0.00 0.00 99 1017.8
20260902114230 61 71 0.0 0.0 0.00 0.00 0.00 99 1017.8
20260902113724 61 66 0.0 0.0 0.00 0.00 0.00 99 1017.8
20260902113219 61 66 0.0 0.0 0.00 0.00 0.00 99 1017.8
20260902112718 61 66 0.0 0.0 0.00 0.00 0.00 99 1017.9
20260902112216 61 54 0.0 0.0 0.00 0.00 0.00 99 1017.8
20260902111711 61 66 0.0 0.0 0.00 0.00 0.00 99 1017.8
20260902111207 61 66 0.0 0.0 0.00 0.00 0.00 99 1017.8
20260902110702 61 66 0.0 0.0 0.00 0.00 0.00 99 1017.6
20260902110158 61 66 0.0 0.0 0.00 0.00 0.00 99 1017.6
20260902105658 61 59 0.0 0.0 0.00 0.00 0.00 99 1017.5
20260902105154 61 66 0.0 0.0 0.00 0.00 0.00 99 1017.6
20260902104649 61 58 0.0 0.0 0.00 0.00 0.00 99 1017.7
20260902104144 61 62 0.0 0.0 0.00 0.00 0.00 99 1017.5
20260902103643 60 66 0.0 0.0 0.00 0.00 0.00 99 1017.3
20260902103138 60 66 0.0 0.0 0.00 0.00 0.00 99 1017.2
20260902102635 60 67 0.0 0.0 0.00 0.00 0.00 99 1017.3
20260902102132 60 66 0.0 0.0 0.00 0.00 0.00 99 1017.4
20260902101627 61 66 0.0 0.0 0.00 0.00 0.00 99 1017.3
20260902101126 61 66 0.0 0.0 0.00 0.00 0.00 99 1017.3
20260902100621 61 79 0.0 0.0 0.00 0.00 0.00 99 1017.3
20260902100116 61 66 0.0 0.0 0.00 0.00 0.00 99 1017.3
20260902095615 0 0.0 0.0 0.00 0.00 0.00 1017.3
20260902095115 62 330 0.9 1.7 0.00 0.00 0.00 99 1017.2
20260902094610 62 330 0.9 1.7 0.00 0.00 0.00 99 1017.3
20260902094106 62 330 0.9 1.7 0.00 0.00 0.00 99 1017.2
20260902093606 0 0.0 0.0 0.00 0.00 0.00 1016.8
20260902093100 0 0.0 0.0 0.00 0.00 0.00 1016.8
20260902092555 0 0.0 0.0 0.00 0.00 0.00 1016.9
20260902092050 0 0.0 0.0 0.00 0.00 0.00 1016.9
20260902091545 0 0.0 0.0 0.00 0.00 0.00 1016.9
20260902091041 0 0.0 0.0 0.00 0.00 0.00 1016.7
20260902090537 62 63 0.0 0.0 0.00 0.00 0.00 99 1016.9
20260902090036 62 63 0.0 0.0 0.00 0.00 0.00 99 1016.6
20260902085530 62 63 0.0 0.0 0.00 0.00 0.00 99 1016.9
20260902085026 62 68 0.0 0.0 0.00 0.00 0.00 99 1016.5
20260902084522 62 65 0.0 0.0 0.00 0.00 0.00 99 1016.6
20260902084017 62 87 0.0 0.0 0.00 0.00 0.00 99 1016.5
20260902083513 62 68 0.0 0.0 0.00 0.00 0.00 99 1016.4
20260902083007 62 66 0.0 0.0 0.00 0.00 0.00 99 1016.3
20260902082503 62 55 0.0 0.0 0.00 0.00 0.00 99 1016.4
20260902081959 62 68 0.0 0.0 0.00 0.00 0.00 99 1016.2
20260902081455 62 64 0.0 0.0 0.00 0.00 0.00 99 1016.4
20260902080949 62 59 0.0 0.0 0.00 0.00 0.00 99 1016.2
20260902080446 62 76 0.0 0.0 0.00 0.00 0.00 99 1016.2
20260902075945 62 60 0.0 0.0 0.00 0.00 0.00 99 1016.3
20260902075441 62 65 0.0 0.0 0.00 0.00 0.00 99 1016.2
20260902074936 62 55 0.0 0.0 0.00 0.00 0.00 99 1016.2
20260902074432 62 68 0.0 0.0 0.00 0.00 0.00 99 1016.2
20260902073927 0 0.0 0.0 0.00 0.00 0.00 1016.0
20260902073423 62 36 0.0 0.0 0.00 0.00 0.00 99 1016.1
20260902072919 62 36 0.0 0.0 0.00 0.00 0.00 99 1016.3
20260902072414 62 61 0.0 0.0 0.00 0.00 0.00 99 1015.9
20260902071911 62 61 0.0 0.0 0.00 0.00 0.00 99 1016.1
20260902071410 62 70 0.0 0.0 0.00 0.00 0.00 99 1015.9
20260902070907 62 73 0.0 0.0 0.00 0.00 0.00 99 1015.8
20260902070401 62 73 0.0 0.0 0.00 0.00 0.00 99 1015.8
20260902065900 62 75 0.0 0.0 0.00 0.00 0.00 99 1016.0
20260902065350 62 61 0.0 0.0 0.00 0.00 0.00 99 1015.9
20260902064845 62 63 0.0 0.0 0.00 0.00 0.00 99 1016.0
20260902064341 62 63 0.0 0.0 0.00 0.00 0.00 99 1016.2
20260902063837 62 71 0.0 0.0 0.00 0.00 0.00 99 1016.2
20260902063336 62 71 0.0 0.0 0.00 0.00 0.00 99 1015.9
20260902062830 62 72 0.0 0.0 0.00 0.00 0.00 99 1016.0
20260902062325 62 72 0.0 0.0 0.00 0.00 0.00 99 1016.1
20260902061825 0 0.0 0.0 0.00 0.00 0.00 1016.1
20260902061320 0 0.0 0.0 0.00 0.00 0.00 1016.1
20260902060817 62 66 0.0 0.0 0.00 0.00 0.00 99 1016.4
20260902060312 62 66 0.0 0.0 0.00 0.00 0.00 99 1016.2
20260902055808 62 58 0.0 0.0 0.00 0.00 0.00 99 1016.1
20260902055307 62 63 0.0 0.0 0.00 0.00 0.00 99 1016.2
20260902054759 62 63 0.0 0.0 0.00 0.00 0.00 99 1016.1
20260902054254 62 71 0.0 0.0 0.00 0.00 0.00 99 1016.2
20260902053750 62 63 0.0 0.0 0.00 0.00 0.00 99 1016.4
20260902053249 62 62 0.0 0.0 0.00 0.00 0.00 99 1016.4
20260902052748 62 62 0.0 0.0 0.00 0.00 0.00 99 1016.3
20260902052244 0 0.0 0.0 0.00 0.00 0.00 1016.2
20260902051743 62 98 0.0 0.0 0.00 0.00 0.00 99 1016.1
20260902051238 62 98 0.0 0.0 0.00 0.00 0.00 99 1016.1
20260902050733 62 98 0.0 0.0 0.00 0.00 0.00 99 1016.1
20260902050229 62 69 0.0 0.0 0.00 0.00 0.00 99 1016.0
20260902045728 62 76 0.0 0.0 0.00 0.00 0.00 99 1016.1
20260902045225 62 76 0.0 0.0 0.00 0.00 0.00 99 1016.0
20260902044720 62 76 0.0 0.0 0.00 0.00 0.00 99 1016.1
20260902044215 0 0.0 0.0 0.00 0.00 0.00 1016.3
20260902043715 62 71 0.0 0.0 0.00 0.00 0.00 99 1015.9
20260902043211 62 71 0.0 0.0 0.00 0.00 0.00 99 1016.0